Change the Weather History Date:

Thursday, February 6, 2014

  Actual Average Record
Temperature  
Mean Temperature 12 °F -  
Max Temperature 19 °F 36 °F 59 °F (2005)
Min Temperature 3 °F 24 °F 0 °F (2007)
Degree Days  
Heating Degree Days 52    
Moisture  
Dew Point 9 °F    
Average Humidity 75    
Maximum Humidity 92    
Minimum Humidity 65    
Precipitation  
Precipitation 0.00 in - - ()
Sea Level Pressure  
Sea Level Pressure 30.35 in    
Wind  
Wind Speed 10 mph (WSW)    
Max Wind Speed 25 mph    
Max Gust Speed 31 mph    
Visibility 10 miles    
Events Snow    
Averages and records for this station are not official NWS values.
T = Trace of Precipitation, MM = Missing Value Source: NWS Daily Summary

Daily Weather History Graph

Daily Weather History Graph

Search for Another Location

Airport or City:

Trip Planner

Search our weather history database for the weather conditions in past years. The results will help you decide how hot, cold, wet, or windy it might be!

Date:

Astronomy

Feb. 06, 2014 Rise Set
Actual Time 7:33 AM EST 5:49 PM EST
Civil Twilight 7:04 AM EST 6:18 PM EST
Nautical Twilight 6:31 AM EST 6:50 PM EST
Astronomical Twilight 5:58 AM EST 7:23 PM EST
Moon 11:19 AM EST (2/6) 12:47 AM EST (2/6)
Length of Visible Light 11h 13m
Length of Day
10h 16m
Waxing Crescent, 49% of the Moon is Illuminated
Feb 6
Waxing Crescent
Feb 6
First Quarter
Feb 14
Full
Feb 22
Last Quarter
Mar 1
New

Hourly Weather History & Observations

Time (EST) Temp. Windchill Dew Point Humidity Pressure Visibility Wind Dir Wind Speed Gust Speed Precip Events Conditions
12:53 AM 17.1 °F 7.6 °F 12.0 °F 81% 30.35 in 8.0 mi North 6.9 mph - 0.00 in Snow Light Snow
1:53 AM 17.1 °F 8.7 °F 10.9 °F 77% 30.35 in 8.0 mi North 5.8 mph - 0.00 in Snow Light Snow
2:53 AM 16.0 °F 7.4 °F 10.0 °F 77% 30.36 in 9.0 mi NW 5.8 mph - 0.00 in Snow Light Snow
3:13 AM 15.8 °F 10.2 °F 8.6 °F 73% 30.33 in 10.0 mi NW 3.5 mph - 0.00 in   Partly Cloudy
3:53 AM 14.0 °F - 10.0 °F 84% 30.36 in 10.0 mi Calm Calm - 0.00 in   Clear
4:53 AM 9.0 °F -0.9 °F 7.0 °F 92% 30.37 in 10.0 mi SW 5.8 mph - N/A   Clear
5:53 AM 10.9 °F 0.2 °F 8.1 °F 88% 30.38 in 10.0 mi SW 6.9 mph - N/A   Clear
6:53 AM 10.9 °F 2.9 °F 7.0 °F 84% 30.38 in 10.0 mi SSW 4.6 mph - N/A   Clear
7:53 AM 10.0 °F -0.9 °F 8.1 °F 92% 30.40 in 10.0 mi SSW 6.9 mph - N/A   Clear
8:53 AM 12.9 °F 5.2 °F 9.0 °F 84% 30.40 in 10.0 mi South 4.6 mph - N/A   Clear
9:53 AM 14.0 °F 2.0 °F 9.0 °F 80% 30.41 in 10.0 mi WSW 9.2 mph - N/A   Overcast
10:28 AM 15.8 °F 5.1 °F 8.6 °F 73% 30.38 in 10.0 mi SW 8.1 mph - N/A   Overcast
10:53 AM 16.0 °F 6.3 °F 9.0 °F 74% 30.41 in 10.0 mi WSW 6.9 mph - N/A   Mostly Cloudy
11:00 AM 15.8 °F 4.2 °F 8.6 °F 73% 30.38 in 10.0 mi SW 9.2 mph - N/A   Mostly Cloudy
11:53 AM 17.1 °F 6.6 °F 8.1 °F 68% 30.40 in 10.0 mi WSW 8.1 mph - N/A   Clear
12:18 PM 17.6 °F 5.0 °F 8.6 °F 68% 30.36 in 10.0 mi West 11.5 mph - N/A   Mostly Cloudy
12:40 PM 19.4 °F 7.9 °F 10.4 °F 68% 30.35 in 10.0 mi West 10.4 mph - N/A   Overcast
12:53 PM 19.0 °F 5.6 °F 9.0 °F 65% 30.38 in 10.0 mi WSW 13.8 mph - N/A   Overcast
1:53 PM 19.9 °F 6.2 °F 10.0 °F 65% 30.35 in 10.0 mi SW 15.0 mph - N/A   Overcast
2:53 PM 19.9 °F 6.7 °F 10.0 °F 65% 30.32 in 10.0 mi SW 13.8 mph - N/A   Overcast
3:53 PM 19.9 °F 3.9 °F 10.9 °F 68% 30.32 in 10.0 mi SW 20.7 mph - N/A   Overcast
4:53 PM 19.9 °F 5.2 °F 12.0 °F 71% 30.32 in 10.0 mi SW 17.3 mph - 0.00 in   Overcast
5:53 PM 19.9 °F 4.8 °F 12.9 °F 74% 30.31 in 10.0 mi SW 18.4 mph - 0.00 in   Overcast
6:35 PM 19.4 °F 1.8 °F 12.2 °F 74% 30.27 in 10.0 mi SW 25.3 mph - 0.00 in   Overcast
6:53 PM 18.0 °F 0.6 °F 10.9 °F 74% 30.31 in 10.0 mi WSW 23.0 mph 27.6 mph 0.00 in   Overcast
7:15 PM 17.6 °F 2.7 °F 10.4 °F 73% 30.28 in 10.0 mi WSW 16.1 mph - N/A   Overcast
7:53 PM 17.1 °F 0.1 °F 9.0 °F 71% 30.32 in 10.0 mi SW 20.7 mph 27.6 mph 0.00 in   Overcast
8:53 PM 15.1 °F -2.0 °F 8.1 °F 74% 30.33 in 10.0 mi WSW 19.6 mph - N/A   Overcast
9:53 PM 12.0 °F -6.9 °F 3.0 °F 67% 30.35 in 10.0 mi SW 21.9 mph 31.1 mph N/A   Scattered Clouds
10:53 PM 6.1 °F -15.2 °F -2.0 °F 69% 30.38 in 10.0 mi WSW 23.0 mph - N/A   Clear
11:53 PM 3.9 °F -15.0 °F -4.0 °F 70% 30.39 in 10.0 mi WSW 16.1 mph - N/A   Partly Cloudy